Location: Unspecified
(0.0000°N, 0.0000°E)
Time: 07:27:23
(UTC+00:00)

Courier 1B - Pass Details

Date: 29 September 2023
Orbit: 962 x 1208 km, 28.3° (Epoch: 06 December)

Event Time Altitude Azimuth Distance (km) Brightness Sun altitude
Rises 08:01:20 0° 238° (WSW) 3,724 10.1 32.7°
Reaches altitude 10° 08:03:57 10° 238° (WSW) 2,802 9.6 33.3°
Maximum altitude 08:10:49 85° 150° (SSE) 1,072 8.4 35.1°
Drops below altitude 10° 08:18:09 10° 61° (ENE) 2,982 11.0 36.9°
Sets 08:21:01 0° 61° (ENE) 3,976 11.4 37.6°
